Location: Arcusa
(42.3167°N, 0.0833°W)
Time: 15:15:08
(UTC+00:00)

STARLINK-1022 - Pass Details

Date: 25 January 2020
Orbit: 548 x 551 km, 53.0° (Epoch: 21 February)

Event Time Altitude Azimuth Distance (km) Brightness Sun altitude
Rises 06:07:13 0° 219° (SW) 2,704 6.9 -13.7°
Reaches altitude 10° 06:09:28 10° 215° (SW) 1,814 6.1 -13.3°
Maximum altitude 06:13:29 54° 138° (SE) 668 4.4 -12.5°
Drops below altitude 10° 06:17:33 10° 60° (ENE) 1,828 7.0 -11.8°
Sets 06:19:49 0° 56° (ENE) 2,725 7.8 -11.4°
